Location: S�tio Afonso Gruber
(26.1760°S, 49.5250°W)
Time: 00:23:58
(UTC+00:00)

Intelsat 5-3 Rocket - Pass Details

Date: 05 October 2020
Orbit: 281 x 6111 km, 23.6° (Epoch: 22 October)

Event Time Altitude Azimuth Distance (km) Brightness Sun altitude
Rises 01:00:22 0° 292° (WNW) 3,617 6.7 -46.5°
Enters shadow 01:01:06 - 293° (WNW) 3,372 6.5 -46.6°
Exits shadow 01:32:19 11° 95° (E) 7,742 7.8 -51.5°
Drops below altitude 10° 01:33:16 10° 95° (E) 7,963 7.9 -51.6°
Sets 01:42:07 0° 96° (E) 9,834 8.5 -52.8°
